Stevens Point, WI

12:57 AM CDT on May 25, 2018 (GMT -0500)
Stevens Point Municipal

Weather History for KSTE - January, 2014

Change the Weather History Date:

Friday, January 24, 2014

  Actual Average Record
Temperature  
Mean Temperature 6 °F -  
Max Temperature 25 °F 25 °F 47 °F (1989)
Min Temperature -14 °F 8 °F -28 °F (1948)
Degree Days  
Heating Degree Days 60    
Moisture  
Dew Point 3 °F    
Average Humidity 75    
Maximum Humidity 92    
Minimum Humidity 59    
Precipitation  
Precipitation 0.00 in - - ()
Sea Level Pressure  
Sea Level Pressure 29.67 in    
Wind  
Wind Speed 11 mph (SW)    
Max Wind Speed 18 mph    
Max Gust Speed 25 mph    
Visibility 8 miles    
Events Snow    
Averages and records for this station are not official NWS values.
T = Trace of Precipitation, MM = Missing Value Source: NWS Daily Summary

Daily Weather History Graph

Daily Weather History Graph

Search for Another Location

Airport or City:

Astronomy

Jan. 24, 2014 Rise Set
Actual Time 7:24 AM CST 4:56 PM CST
Civil Twilight 6:53 AM CST 5:27 PM CST
Nautical Twilight 6:17 AM CST 6:03 PM CST
Astronomical Twilight 5:43 AM CST 6:37 PM CST
Moon 12:48 AM CST (1/24) 11:17 AM CST (1/24)
Length of Visible Light 10h 34m
Length of Day
9h 31m
Last Quarter, 44% of the Moon is Illuminated
Jan 24
Last Quarter
Jan 30
New
Feb 6
First Quarter
Feb 14
Full
Feb 22
Last Quarter

Hourly Weather History & Observations

Time (CST) Temp. Windchill Dew Point Humidity Pressure Visibility Wind Dir Wind Speed Gust Speed Precip Events Conditions
12:15 AM -13.7 °F -32.1 °F -18.9 °F 77% 30.28 in 10.0 mi SW 9.2 mph - N/A   Clear
12:35 AM -13.9 °F -31.1 °F -19.3 °F 77% 30.26 in 10.0 mi SSW 8.1 mph - N/A   Clear
12:55 AM -13.9 °F -29.7 °F -19.3 °F 77% 30.24 in 10.0 mi South 6.9 mph - N/A   Clear
1:15 AM -14.1 °F -29.9 °F -19.3 °F 77% 30.23 in 10.0 mi SSW 6.9 mph - N/A   Clear
1:35 AM -14.3 °F -31.5 °F -19.3 °F 78% 30.21 in 10.0 mi SSW 8.1 mph - N/A   Clear
1:55 AM -13.0 °F -30.0 °F -17.9 °F 79% 30.19 in 10.0 mi SSW 8.1 mph - N/A   Clear
2:15 AM -12.3 °F -29.1 °F -16.8 °F 80% 30.17 in 10.0 mi SSW 8.1 mph - N/A   Clear
2:35 AM -11.6 °F -31.6 °F -15.9 °F 81% 30.16 in 10.0 mi SSW 11.5 mph - N/A   Clear
2:55 AM -10.7 °F -29.5 °F -15.3 °F 80% 30.13 in 10.0 mi SSW 10.4 mph - N/A   Clear
3:15 AM -9.9 °F -29.6 °F -14.8 °F 79% 30.10 in 10.0 mi SSW 11.5 mph - N/A   Scattered Clouds
3:35 AM -9.4 °F -27.9 °F -14.1 °F 80% 30.08 in 10.0 mi SSW 10.4 mph - N/A   Clear
3:55 AM -8.0 °F -27.1 °F -13.0 °F 79% 30.04 in 10.0 mi SSW 11.5 mph - N/A   Scattered Clouds
4:15 AM -6.0 °F -25.5 °F -11.6 °F 77% 30.02 in 10.0 mi SSW 12.7 mph - N/A   Mostly Cloudy
4:35 AM -4.0 °F -23.7 °F -10.5 °F 74% 29.98 in 10.0 mi SSW 13.8 mph 25.3 mph N/A   Overcast
4:55 AM -2.7 °F -22.1 °F -10.3 °F 70% 29.96 in 10.0 mi SSW 13.8 mph 18.4 mph N/A   Overcast
5:15 AM -1.5 °F -19.8 °F -9.4 °F 69% 29.94 in 10.0 mi SSW 12.7 mph 19.6 mph N/A   Overcast
5:35 AM -0.4 °F -20.5 °F -9.2 °F 66% 29.91 in 10.0 mi SSW 16.1 mph 20.7 mph N/A   Overcast
5:55 AM 0.5 °F -19.4 °F -8.5 °F 66% 29.87 in 10.0 mi SSW 16.1 mph 20.7 mph N/A   Overcast
6:15 AM 2.1 °F -16.6 °F -8.0 °F 63% 29.86 in 10.0 mi SSW 15.0 mph 21.9 mph N/A   Overcast
6:35 AM 3.2 °F -15.9 °F -7.8 °F 60% 29.86 in 10.0 mi SW 16.1 mph 20.7 mph N/A   Overcast
6:55 AM 3.7 °F -14.6 °F -7.6 °F 59% 29.84 in 10.0 mi SW 15.0 mph 19.6 mph N/A   Overcast
7:15 AM 4.8 °F -14.9 °F -6.3 °F 60% 29.82 in 10.0 mi SSW 18.4 mph 23.0 mph N/A   Overcast
7:35 AM 5.5 °F -12.3 °F -5.3 °F 61% 29.80 in 10.0 mi SW 15.0 mph 21.9 mph N/A Snow Light Snow
7:55 AM 5.0 °F -13.6 °F -2.0 °F 73% 29.78 in 1.0 mi SW 16.1 mph 21.9 mph N/A Snow Light Snow
8:15 AM 5.0 °F -11.6 °F -0.4 °F 78% 29.78 in 1.2 mi SW 12.7 mph 19.6 mph N/A Snow Light Snow
8:35 AM 5.7 °F -9.9 °F -0.0 °F 77% 29.77 in 4.0 mi SW 11.5 mph - N/A Snow Light Snow
8:55 AM 6.4 °F -11.1 °F 0.5 °F 77% 29.76 in 3.0 mi SW 15.0 mph 18.4 mph N/A Snow Light Snow
9:15 AM 7.2 °F -8.9 °F 1.0 °F 76% 29.74 in 2.5 mi SW 12.7 mph 23.0 mph N/A Snow Light Snow
9:35 AM 8.1 °F -9.0 °F 1.0 °F 73% 29.73 in 5.0 mi SW 15.0 mph 21.9 mph N/A Snow Light Snow
9:55 AM 9.1 °F -7.0 °F 1.4 °F 71% 29.71 in 10.0 mi SW 13.8 mph 24.2 mph N/A   Overcast
10:15 AM 10.0 °F -5.2 °F 1.4 °F 68% 29.70 in 10.0 mi SW 12.7 mph 23.0 mph N/A   Overcast
10:35 AM 10.6 °F -6.4 °F 1.4 °F 67% 29.69 in 7.0 mi SW 16.1 mph 24.2 mph N/A   Overcast
10:55 AM 11.3 °F -5.5 °F 1.8 °F 66% 29.68 in 10.0 mi SW 16.1 mph 21.9 mph N/A   Overcast
11:15 AM 12.2 °F -4.3 °F 2.1 °F 64% 29.67 in 10.0 mi SW 16.1 mph 21.9 mph N/A   Overcast
11:35 AM 13.1 °F -2.6 °F 3.0 °F 64% 29.64 in 7.0 mi SW 15.0 mph 25.3 mph N/A   Overcast
11:55 AM 13.6 °F 0.0 °F 3.7 °F 65% 29.63 in 10.0 mi SW 11.5 mph 23.0 mph N/A   Overcast
12:15 PM 14.0 °F -0.8 °F 3.9 °F 64% 29.61 in 10.0 mi SW 13.8 mph 18.4 mph N/A   Overcast
12:35 PM 14.7 °F 0.7 °F 4.5 °F 64% 29.59 in 10.0 mi SW 12.7 mph - N/A   Overcast
12:55 PM 15.3 °F 1.4 °F 4.8 °F 63% 29.57 in 10.0 mi SW 12.7 mph 16.1 mph N/A   Overcast
1:15 PM 15.8 °F 0.9 °F 5.4 °F 63% 29.56 in 10.0 mi SW 15.0 mph 23.0 mph N/A   Overcast
1:35 PM 16.2 °F 1.9 °F 5.9 °F 64% 29.53 in 10.0 mi WSW 13.8 mph 20.7 mph N/A   Overcast
1:55 PM 16.7 °F 3.2 °F 6.4 °F 64% 29.52 in 10.0 mi SW 12.7 mph 24.2 mph N/A   Overcast
2:15 PM 17.1 °F 2.5 °F 6.8 °F 64% 29.51 in 10.0 mi WSW 15.0 mph 21.9 mph N/A   Overcast
2:35 PM 17.6 °F 4.3 °F 7.7 °F 65% 29.50 in 10.0 mi SW 12.7 mph 19.6 mph N/A   Overcast
2:55 PM 18.0 °F 5.4 °F 8.2 °F 66% 29.49 in 10.0 mi SW 11.5 mph 16.1 mph N/A   Overcast
3:15 PM 18.3 °F 6.6 °F 8.6 °F 66% 29.50 in 10.0 mi WSW 10.4 mph 17.3 mph N/A   Overcast
3:35 PM 18.5 °F 6.8 °F 9.1 °F 67% 29.49 in 10.0 mi WSW 10.4 mph - N/A   Overcast
3:55 PM 18.9 °F 7.2 °F 9.5 °F 67% 29.49 in 10.0 mi SW 10.4 mph 16.1 mph N/A   Overcast
4:15 PM 18.9 °F 8.0 °F 10.4 °F 70% 29.47 in 10.0 mi SW 9.2 mph - N/A   Overcast
4:35 PM 19.0 °F 7.5 °F 11.5 °F 72% 29.46 in 4.0 mi SW 10.4 mph - N/A Snow Light Snow
4:55 PM 18.5 °F 6.1 °F 12.6 °F 78% 29.44 in 4.0 mi SW 11.5 mph 16.1 mph N/A Snow Light Snow
5:15 PM 18.5 °F 8.4 °F 14.0 °F 83% 29.43 in 3.0 mi SW 8.1 mph - N/A Snow Light Snow
5:35 PM 18.5 °F 7.5 °F 15.3 °F 87% 29.42 in 1.8 mi SW 9.2 mph - N/A Snow Light Snow
5:55 PM 18.5 °F 8.4 °F 15.6 °F 89% 29.41 in 2.0 mi SSW 8.1 mph - N/A   Overcast
6:15 PM 18.5 °F 8.4 °F 16.2 °F 91% 29.41 in 1.8 mi SW 8.1 mph - N/A   Overcast
6:35 PM 18.9 °F 8.0 °F 16.7 °F 91% 29.40 in 1.5 mi SW 9.2 mph - N/A   Overcast
6:55 PM 19.4 °F 9.5 °F 17.2 °F 91% 29.39 in 5.0 mi SW 8.1 mph - N/A Snow Light Snow
7:15 PM 19.9 °F 10.1 °F 17.4 °F 90% 29.38 in 7.0 mi SW 8.1 mph - N/A   Overcast
7:35 PM 20.3 °F 12.5 °F 18.1 °F 91% 29.38 in 3.0 mi WSW 5.8 mph - N/A   Overcast
7:55 PM 21.0 °F 11.4 °F 19.0 °F 92% 29.36 in 5.0 mi WSW 8.1 mph - N/A   Overcast
8:15 PM 21.9 °F 12.5 °F 19.8 °F 91% 29.35 in 4.0 mi WSW 8.1 mph - N/A   Overcast
8:35 PM 22.5 °F 13.2 °F 20.3 °F 91% 29.35 in 10.0 mi West 8.1 mph - N/A   Overcast
8:55 PM 23.5 °F 13.7 °F 21.2 °F 91% 29.34 in 7.0 mi West 9.2 mph 17.3 mph N/A   Overcast
9:15 PM 23.9 °F 14.2 °F 21.6 °F 91% 29.34 in 10.0 mi West 9.2 mph - N/A   Overcast
9:35 PM 24.6 °F 16.7 °F 21.7 °F 89% 29.34 in 10.0 mi West 6.9 mph - N/A   Overcast
9:55 PM 24.8 °F 15.3 °F 21.6 °F 87% 29.34 in 10.0 mi WNW 9.2 mph 16.1 mph N/A   Overcast
10:15 PM 25.3 °F 17.6 °F 21.4 °F 85% 29.33 in 10.0 mi WNW 6.9 mph - N/A   Overcast
10:35 PM 25.5 °F 16.9 °F 21.0 °F 83% 29.33 in 10.0 mi West 8.1 mph 17.3 mph N/A   Overcast
10:55 PM 25.5 °F 15.5 °F 20.5 °F 81% 29.33 in 7.0 mi WNW 10.4 mph 19.6 mph N/A   Overcast
11:15 PM 25.3 °F 14.7 °F 19.9 °F 80% 29.33 in 10.0 mi West 11.5 mph - N/A   Mostly Cloudy
11:35 PM 25.3 °F 18.5 °F 18.9 °F 76% 29.33 in 10.0 mi West 5.8 mph - N/A Snow Light Snow
11:55 PM 25.5 °F 14.9 °F 17.6 °F 72% 29.33 in 10.0 mi WNW 11.5 mph 17.3 mph N/A   Overcast